H1 CPF 2 NER 2025 8 28 9 240 01 glonass131 H2 1301901 9131 39155 2025 8 28 0 0 0 2025 8 31 23 45 0 900 1 1 0 0 0 1 H9 10 0 60915 0.00000 0 7290346.464 10753640.593 -21926376.647 10 0 60915 900.00000 0 6672003.323 13319743.648 -20687592.048 10 0 60915 1800.00000 0 6280772.435 15750041.285 -19046329.593 10 0 60915 2700.00000 0 6100537.164 17979095.746 -17034812.492 10 0 60915 3600.00000 0 6103766.623 19947464.951 -14692408.997 10 0 60915 4500.00000 0 6252879.565 21603999.635 -12064845.991 10 0 60915 5400.00000 0 6502038.241 22907801.877 -9203304.002 10 0 60915 6300.00000 0 6799294.324 23829765.585 -6163412.327 10 0 60915 7200.00000 0 7088994.745 24353637.214 -3004164.548 10 0 60915 8100.00000 0 7314345.154 24476555.347 213224.187 10 0 60915 9000.00000 0 7420022.796 24209049.391 3426496.061 10 0 60915 9900.00000 0 7354729.223 23574500.023 6573543.332 10 0 60915 10800.00000 0 7073576.379 22608085.982 9593592.788 10 0 60915 11700.00000 0 6540206.974 21355262.604 12428360.392 10 0 60915 12600.00000 0 5728561.376 19869836.220 15023155.411 10 0 60915 13500.00000 0 4624217.955 18211714.607 17327914.621 10 0 60915 14400.00000 0 3225251.341 16444426.349 19298148.626 10 0 60915 15300.00000 0 1542572.637 14632510.949 20895783.928 10 0 60915 16200.00000 0 -400263.493 12838886.418 22089886.260 10 0 60915 17100.00000 0 -2567778.488 11122301.788 22857252.582 10 0 60915 18000.00000 0 -4913788.784 9534978.501 23182861.154 10 0 60915 18900.00000 0 -7383076.290 8120537.153 23060171.248 10 0 60915 19800.00000 0 -9913444.432 6912294.694 22491266.248 10 0 60915 20700.00000 0 -12438077.836 5932002.577 21486836.242 10 0 60915 21600.00000 0 -14888110.827 5189078.722 20065998.681 10 0 60915 22500.00000 0 -17195300.755 4680366.306 18255958.331 10 0 60915 23400.00000 0 -19294696.775 4390431.004 16091510.506 10 0 60915 24300.00000 0 -21127193.921 4292386.031 13614394.602 10 0 60915 25200.00000 0 -22641865.880 4349212.274 10872507.881 10 0 60915 26100.00000 0 -23797977.942 4515519.602 7918992.719 10 0 60915 27000.00000 0 -24566594.088 4739676.264 4811213.477 10 0 60915 27900.00000 0 -24931708.488 4966216.837 1609642.070 10 0 60915 28800.00000 0 -24890851.308 5138426.430 -1623326.020 10 0 60915 29700.00000 0 -24455140.959 5200990.302 -4824601.454 10 0 60915 30600.00000 0 -23648778.617 5102594.459 -7931650.975 10 0 60915 31500.00000 0 -22508005.026 4798364.104 -10883741.104 10 0 60915 32400.00000 0 -21079563.193 4252033.406 -13623148.915 10 0 60915 33300.00000 0 -19418732.212 3437751.371 -16096313.773 10 0 60915 34200.00000 0 -17587016.392 2341444.335 -18254905.125 10 0 60915 35100.00000 0 -15649588.883 961674.942 -20056783.483 10 0 60915 36000.00000 0 -13672599.565 -690040.519 -21466834.355 10 0 60915 36900.00000 0 -11720462.623 -2589470.822 -22457657.879 10 0 60915 37800.00000 0 -9853239.606 -4700454.786 -23010100.466 10 0 60915 38700.00000 0 -8124229.088 -6976199.100 -23113618.463 10 0 60915 39600.00000 0 -6577864.485 -9361033.563 -22766467.614 10 0 60915 40500.00000 0 -5248007.684 -11792548.898 -21975716.010 10 0 60915 41400.00000 0 -4156708.565 -14204026.363 -20757081.940 10 0 60915 42300.00000 0 -3313480.142 -16527056.359 -19134601.654 10 0 60915 43200.00000 0 -2715116.744 -18694235.839 -17140135.417 10 0 60915 44100.00000 0 -2346059.467 -20641831.643 -14812723.302 10 0 60915 45000.00000 0 -2179289.985 -22312298.908 -12197804.947 10 0 60915 45900.00000 0 -2177711.778 -23656550.466 -9346319.882 10 0 60915 46800.00000 0 -2295957.658 -24635884.142 -6313707.021 10 0 60915 47700.00000 0 -2482545.144 -25223489.620 -3158823.528 10 0 60915 48600.00000 0 -2682287.313 -25405474.395 57195.603 10 0 60915 49500.00000 0 -2838856.743 -25181368.550 3272115.233 10 0 60915 50400.00000 0 -2897394.544 -24564089.720 6423792.681 10 0 60915 51300.00000 0 -2807055.213 -23579371.776 9451363.100 10 0 60915 52200.00000 0 -2523381.335 -22264682.624 12296396.056 10 0 60915 53100.00000 0 -2010409.580 -20667677.065 14904002.543 10 0 60915 54000.00000 0 -1242420.833 -18844249.314 17223872.978 10 0 60915 54900.00000 0 -205261.976 -16856265.511 19211228.131 10 0 60915 55800.00000 0 1102815.605 -14769069.257 20827666.546 10 0 60915 56700.00000 0 2670836.225 -12648861.973 22041893.895 10 0 60915 57600.00000 0 4475313.331 -10560064.690 22830321.563 10 0 60915 58500.00000 0 6480989.239 -8562768.661 23177523.786 10 0 60915 59400.00000 0 8642073.070 -6710378.582 23076544.800 10 0 60915 60300.00000 0 10903928.614 -5047544.696 22529049.642 10 0 60915 61200.00000 0 13205145.334 -3608468.771 21545314.585 10 0 60915 62100.00000 0 15479909.777 -2415654.112 20144055.655 10 0 60915 63000.00000 0 17660581.722 -1479152.117 18352096.325 10 0 60915 63900.00000 0 19680370.101 -796337.906 16203878.234 10 0 60915 64800.00000 0 21475998.548 -352225.879 13740821.773 10 0 60915 65700.00000 0 22990249.726 -120313.728 11010546.389 10 0 60915 66600.00000 0 24174281.368 -63921.093 8065963.605 10 0 60915 67500.00000 0 24989615.492 -137967.799 4964258.824 10 0 60915 68400.00000 0 25409715.068 -291117.366 1765780.831 10 0 60915 69300.00000 0 25421079.192 -468195.120 -1467139.381 10 0 60915 70200.00000 0 25023807.957 -612777.605 -4671416.686 10 0 60915 71100.00000 0 24231610.731 -669841.828 -7784461.425 10 0 60915 72000.00000 0 23071255.597 -588359.511 -10745424.035 10 0 60915 72900.00000 0 21581481.994 -323723.378 -13496408.076 10 0 60915 73800.00000 0 19811422.158 160100.576 -15983625.452 10 0 60915 74700.00000 0 17818598.460 888789.093 -18158468.866 10 0 60915 75600.00000 0 15666582.326 1876324.194 -19978478.529 10 0 60915 76500.00000 0 13422415.002 3124160.905 -21408182.687 10 0 60915 77400.00000 0 11153900.642 4620936.675 -22419794.622 10 0 60915 78300.00000 0 8926887.215 6342735.319 -22993752.197 10 0 60915 79200.00000 0 6802650.755 8253894.209 -23119089.797 10 0 60915 80100.00000 0 4835493.353 10308319.972 -22793636.263 10 0 60915 81000.00000 0 3070655.376 12451256.249 -22024036.327 10 0 60915 81900.00000 0 1542628.303 14621427.969 -20825596.795 10 0 60915 82800.00000 0 273936.855 16753470.913 -19221962.315 10 0 60915 83700.00000 0 -725561.342 18780543.725 -17244628.980 10 0 60915 84600.00000 0 -1458832.543 20637012.421 -14932307.048 10 0 60915 85500.00000 0 -1941277.206 22261094.955 -12330146.889 10 0 60916 0.00000 0 -2199813.905 23597355.673 -9488844.928 10 0 60916 900.00000 0 -2271478.846 24598947.144 -6463646.507 10 0 60916 1800.00000 0 -2201602.537 25229505.541 -3313269.699 10 0 60916 2700.00000 0 -2041643.007 25464624.809 -98766.255 10 0 60916 3600.00000 0 -1846767.836 25292848.394 3117654.544 10 0 60916 4500.00000 0 -1673287.585 24716140.106 6273818.267 10 0 60916 5400.00000 0 -1576048.450 23749816.361 9308771.553 10 0 60916 6300.00000 0 -1605893.089 22421944.167 12163940.541 10 0 60916 7200.00000 0 -1807295.162 20772230.947 14784240.728 10 0 60916 8100.00000 0 -2216265.640 18850452.663 17119118.713 10 0 60916 9000.00000 0 -2858617.500 16714485.129 19123507.699 10 0 60916 9900.00000 0 -3748660.713 14428019.142 20758680.251 10 0 60916 10800.00000 0 -4888381.942 12058052.463 21992983.642 10 0 60916 11700.00000 0 -6267143.819 9672260.505 22802444.994 10 0 60916 12600.00000 0 -7861917.749 7336352.370 23171235.432 10 0 60916 13500.00000 0 -9638042.722 5111519.537 23091984.635 10 0 60916 14400.00000 0 -11550481.409 3052080.959 22565939.273 10 0 60916 15300.00000 0 -13545524.411 1203420.871 21602961.247 10 0 60916 16200.00000 0 -15562875.123 -399695.908 20221364.037 10 0 60916 17100.00000 0 -17538031.499 -1734361.170 18447588.126 10 0 60916 18000.00000 0 -19404868.062 -2790260.822 16315719.223 10 0 60916 18900.00000 0 -21098312.259 -3569880.773 13866855.968 10 0 60916 19800.00000 0 -22557004.211 -4088171.004 11148336.824 10 0 60916 20700.00000 0 -23725828.336 -4371680.317 8212838.993 10 0 60916 21600.00000 0 -24558209.523 -4457196.659 5117365.257 10 0 60916 22500.00000 0 -25018075.405 -4389949.348 1922137.532 10 0 60916 23400.00000 0 -25081399.546 -4221448.767 -1310581.381 10 0 60916 24300.00000 0 -24737257.617 -4007055.399 -4517714.169 10 0 60916 25200.00000 0 -23988349.191 -3803382.453 -7636618.177 10 0 60916 26100.00000 0 -22850960.648 -3665644.272 -10606330.938 10 0 60916 27000.00000 0 -21354368.936 -3645065.630 -13368785.370 10 0 60916 27900.00000 0 -19539710.311 -3786464.775 -15869968.441 10 0 60916 28800.00000 0 -17458361.646 -4126115.702 -18060998.200 10 0 60916 29700.00000 0 -15169903.165 -4689983.037 -19899096.119 10 0 60916 30600.00000 0 -12739749.641 -5492406.478 -21348434.171 10 0 60916 31500.00000 0 -10236551.327 -6535292.045 -22380839.123 10 0 60916 32400.00000 0 -7729475.508 -7807845.054 -22976339.990 10 0 60916 33300.00000 0 -5285484.156 -9286856.183 -23123548.266 10 0 60916 34200.00000 0 -2966722.754 -10937527.867 -22819864.404 10 0 60916 35100.00000 0 -828129.863 -12714805.129 -22071507.815 10 0 60916 36000.00000 0 1084633.240 -14565153.439 -20893371.482 10 0 60916 36900.00000 0 2736847.715 -16428707.354 -19308705.847 10 0 60916 37800.00000 0 4105929.889 -18241698.394 -17348640.032 10 0 60916 38700.00000 0 5182104.722 -19939059.274 -15051551.578 10 0 60916 39600.00000 0 5968535.385 -21457094.709 -12462298.667 10 0 60916 40500.00000 0 6480907.305 -22736106.911 -9631331.200 10 0 60916 41400.00000 0 6746487.867 -23722866.406 -6613699.180 10 0 60916 42300.00000 0 6802704.613 -24372825.836 -3467978.449 10 0 60916 43200.00000 0 6695304.453 -24651985.725 -255135.034 10 0 60916 44100.00000 0 6476173.350 -24538336.030 2962649.923 10 0 60916 45000.00000 0 6200909.354 -24022815.217 6123172.310 10 0 60916 45900.00000 0 5926251.453 -23109748.654 9165392.096 10 0 60916 46800.00000 0 5707471.938 -21816749.586 12030593.619 10 0 60916 47700.00000 0 5595840.962 -20174087.829 14663498.280 10 0 60916 48600.00000 0 5636268.440 -18223552.879 17013310.021 10 0 60916 49500.00000 0 5865220.849 -16016858.330 19034675.402 10 0 60916 50400.00000 0 6308999.084 -13613652.832 20688541.682 10 0 60916 51300.00000 0 6982448.722 -11079218.381 21942898.146 10 0 60916 52200.00000 0 7888156.603 -8481949.126 22773387.804 10 0 60916 53100.00000 0 9016168.028 -5890712.638 23163778.588 10 0 60916 54000.00000 0 10344237.941 -3372200.359 23106285.291 10 0 60916 54900.00000 0 11838607.941 -988374.600 22601735.694 10 0 60916 55800.00000 0 13455279.605 1205883.991 21659576.616 10 0 60916 56700.00000 0 15141734.190 3164832.235 20297718.124 10 0 60916 57600.00000 0 16839030.208 4853538.672 18542216.686 10 0 60916 58500.00000 0 18484194.112 6249106.385 16426800.902 10 0 60916 59400.00000 0 20012806.445 7341392.605 13992246.320 10 0 60916 60300.00000 0 21361676.562 8133193.656 11285608.884 10 0 60916 61200.00000 0 22471494.161 8639885.909 8359329.727 10 0 60916 62100.00000 0 23289345.598 8888536.229 5270227.040 10 0 60916 63000.00000 0 23770987.515 8916518.112 2078393.683 10 0 60916 63900.00000 0 23882779.574 8769691.118 -1153978.112 10 0 60916 64800.00000 0 23603191.923 8500220.598 -4363821.341 10 0 60916 65700.00000 0 22923820.665 8164130.758 -7488442.907 10 0 60916 66600.00000 0 21849865.572 7818696.389 -10466769.946 10 0 60916 67500.00000 0 20400047.473 7519786.097 -13240567.130 10 0 60916 68400.00000 0 18605967.078 7319272.410 -15755598.696 10 0 60916 69300.00000 0 16510931.459 7262621.505 -17962710.033 10 0 60916 70200.00000 0 14168297.635 7386767.425 -19818805.650 10 0 60916 71100.00000 0 11639403.717 7718363.213 -21287702.804 10 0 60916 72000.00000 0 8991175.892 8272484.718 -22340843.100 10 0 60916 72900.00000 0 6293513.252 9051842.825 -22957847.836 10 0 60916 73800.00000 0 3616561.631 10046537.610 -23126906.512 10 0 60916 74700.00000 0 1027991.801 11234364.227 -22844991.792 10 0 60916 75600.00000 0 -1409603.475 12581656.459 -22117898.026 10 0 60916 76500.00000 0 -3641084.932 14044630.888 -20960104.234 10 0 60916 77400.00000 0 -5620816.547 15571173.324 -19394466.074 10 0 60916 78300.00000 0 -7314305.828 17102990.669 -17451744.693 10 0 60916 79200.00000 0 -8699368.786 18578036.337 -15169983.492 10 0 60916 80100.00000 0 -9766774.146 19933106.279 -12593746.651 10 0 60916 81000.00000 0 -10520343.571 21106496.124 -9773235.676 10 0 60916 81900.00000 0 -10976507.444 22040608.002 -6763302.306 10 0 60916 82800.00000 0 -11163338.488 22684398.372 -3622377.773 10 0 60916 83700.00000 0 -11119106.936 22995565.372 -411339.605 10 0 60916 84600.00000 0 -10890420.457 22942385.600 2807662.059 10 0 60916 85500.00000 0 -10530028.723 22505125.158 5972396.343 10 0 60917 0.00000 0 -10094385.800 21676967.737 9021739.184 10 0 60917 900.00000 0 -9641072.574 20464421.966 11896836.523 10 0 60917 1800.00000 0 -9226187.452 18887193.265 14542218.136 10 0 60917 2700.00000 0 -8901812.881 16977524.568 16906847.920 10 0 60917 3600.00000 0 -8713663.075 14779034.114 18945088.222 10 0 60917 4500.00000 0 -8699009.864 12345097.288 20617563.201 10 0 60917 5400.00000 0 -8884972.340 9736838.067 21891906.102 10 0 60917 6300.00000 0 -9287241.207 7020811.057 22743377.466 10 0 60917 7200.00000 0 -9909291.174 4266467.573 23155343.309 10 0 60917 8100.00000 0 -10742115.154 1543507.836 23119604.416 10 0 60917 9000.00000 0 -11764493.014 -1080773.764 22636570.084 10 0 60917 9900.00000 0 -12943785.992 -3544042.725 21715271.954 10 0 60917 10800.00000 0 -14237226.431 -5791273.703 20373216.024 10 0 60917 11700.00000 0 -15593652.011 -7776798.594 18636073.538 10 0 60917 12600.00000 0 -16955614.878 -9465968.481 16537214.223 10 0 60917 13500.00000 0 -18261779.884 -10836359.812 14117088.245 10 0 60917 14400.00000 0 -19449513.228 -11878473.288 11422466.280 10 0 60917 15300.00000 0 -20457553.642 -12595894.706 8505550.267 10 0 60917 16200.00000 0 -21228653.677 -13004909.335 5422970.392 10 0 60917 17100.00000 0 -21712078.656 -13133584.475 2234686.855 10 0 60917 18000.00000 0 -21865855.811 -13020357.762 -997182.375 10 0 60917 18900.00000 0 -21658675.915 -12712190.306 -4209584.319 10 0 60917 19800.00000 0 -21071363.915 -12262363.086 -7339779.096 10 0 60917 20700.00000 0 -20097853.272 -11728010.965 -10326586.973 10 0 60917 21600.00000 0 -18745619.954 -11167500.687 -13111607.706 10 0 60917 22500.00000 0 -17035555.464 -10637766.344 -15640385.847 10 0 60917 23400.00000 0 -15001282.760 -10191717.983 -17863496.790 10 0 60917 24300.00000 0 -12687943.238 -9875835.844 -19737530.256 10 0 60917 25200.00000 0 -10150505.999 -9728054.521 -21225950.379 10 0 60917 26100.00000 0 -7451671.332 -9776028.483 -22299814.539 10 0 60917 27000.00000 0 -4659457.689 -10035853.425 -22938336.549 10 0 60917 27900.00000 0 -1844574.717 -10511297.825 -23129283.458 10 0 60917 28800.00000 0 922306.333 -11193576.687 -22869199.037 10 0 60917 29700.00000 0 3573269.812 -12061675.854 -22163450.910 10 0 60917 30600.00000 0 6045746.680 -13083211.536 -21026102.008 10 0 60917 31500.00000 0 8284871.603 -14215786.863 -19479610.708 10 0 60917 32400.00000 0 10245509.108 -15408786.259 -17554367.400 10 0 60917 33300.00000 0 11893866.339 -16605530.235 -15288078.352 10 0 60917 34200.00000 0 13208627.916 -17745698.375 -12725010.591 10 0 60917 35100.00000 0 14181568.851 -18767917.565 -9915113.976 10 0 60917 36000.00000 0 14817623.565 -19612406.211 -6913038.685 10 0 60917 36900.00000 0 15134411.756 -20223563.466 -3777068.060 10 0 60917 37800.00000 0 15161244.423 -20552395.448 -567987.943 10 0 60917 38700.00000 0 14937654.612 -20558677.801 2652085.563 10 0 60917 39600.00000 0 14511516.719 -20212765.357 5820897.591 10 0 60917 40500.00000 0 13936834.655 -19496974.680 8877243.053 10 0 60917 41400.00000 0 13271292.228 -18406483.066 11762130.502 10 0 60917 42300.00000 0 12573668.215 -16949707.535 14419900.357 10 0 60917 43200.00000 0 11901223.618 -15148148.602 16799277.771 10 0 60917 44100.00000 0 11307169.171 -13035705.228 18854341.765 10 0 60917 45000.00000 0 10838317.584 -10657488.635 20545393.893 10 0 60917 45900.00000 0 10533017.226 -8068182.710 21839711.474 10 0 60917 46800.00000 0 10419452.451 -5330016.773 22712172.353 10 0 60917 47700.00000 0 10514381.015 -2510432.065 23145740.092 10 0 60917 48600.00000 0 10822361.400 320464.378 23131800.658 10 0 60917 49500.00000 0 11335503.241 3092556.050 22670343.831 10 0 60917 50400.00000 0 12033752.943 5738376.169 21769984.843 10 0 60917 51300.00000 0 12885704.847 8195661.806 20447824.244 10 0 60917 52200.00000 0 13849906.721 10409698.503 18729146.553 10 0 60917 53100.00000 0 14876607.739 12335358.690 16646961.007 10 0 60917 54000.00000 0 15909878.288 13938748.948 14241390.666 10 0 60917 54900.00000 0 16890014.717 15198396.553 11558919.107 10 0 60917 55800.00000 0 17756129.213 16105924.267 8651507.112 10 0 60917 56700.00000 0 18448816.148 16666183.344 5575594.780 10 0 60917 57600.00000 0 18912781.752 16896837.399 2391007.443 10 0 60917 58500.00000 0 19099324.448 16827413.156 -840213.487 10 0 60917 59400.00000 0 18968558.551 16497857.111 -4055031.399 10 0 60917 60300.00000 0 18491284.258 15956658.870 -7190661.933 10 0 60917 61200.00000 0 17650421.568 15258621.052 -10185820.713 10 0 60917 62100.00000 0 16441944.312 14462371.536 -12981944.646 10 0 60917 63000.00000 0 14875272.035 13627725.395 -15524360.479 10 0 60917 63900.00000 0 12973101.099 12813010.693 -17763375.273 10 0 60917 64800.00000 0 10770680.826 12072473.960 -19655265.425 10 0 60917 65700.00000 0 8314564.683 11453877.605 -21163143.219 10 0 60917 66600.00000 0 5660889.407 10996392.864 -22257682.904 10 0 60917 67500.00000 0 2873255.198 10728878.694 -22917691.725 10 0 60917 68400.00000 0 20297.107 10668619.807 -23130514.990 10 0 60917 69300.00000 0 -2826949.322 10820576.788 -22892268.035 10 0 60917 70200.00000 0 -5597776.950 11177178.801 -22207891.891 10 0 60917 71100.00000 0 -8224515.779 11718665.874 -21091033.160 10 0 60917 72000.00000 0 -10645108.471 12413964.101 -19563752.291 10 0 60917 72900.00000 0 -12805445.945 13222054.512 -17656067.850 10 0 60917 73800.00000 0 -14661367.170 14093775.586 -15405347.518 10 0 60917 74700.00000 0 -16180242.002 14973981.399 -12855559.393 10 0 60917 75600.00000 0 -17342073.918 15803962.944 -10056399.645 10 0 60917 76500.00000 0 -18140079.918 16524029.637 -7062314.663 10 0 60917 77400.00000 0 -18580726.878 17076141.968 -3931437.534 10 0 60917 78300.00000 0 -18683226.268 17406484.795 -724459.967 10 0 60917 79200.00000 0 -18478511.483 17467873.860 2496538.477 10 0 60917 80100.00000 0 -18007743.170 17221895.646 5669281.490 10 0 60917 81000.00000 0 -17320406.968 16640692.132 8732485.269 10 0 60917 81900.00000 0 -16472084.343 15708317.075 11627024.101 10 0 60917 82800.00000 0 -15521990.059 14421608.189 14297051.327 10 0 60917 83700.00000 0 -14530378.789 12790539.505 16691055.839 10 0 60917 84600.00000 0 -13555928.177 10838039.314 18762835.702 10 0 60917 85500.00000 0 -12653206.221 8599280.671 20472372.055 10 0 60918 0.00000 0 -11870327.159 6120472.799 21786588.165 10 0 60918 900.00000 0 -11246891.798 3457200.150 22679981.098 10 0 60918 1800.00000 0 -10812298.134 672378.665 23135113.182 10 0 60918 2700.00000 0 -10584490.790 -2166093.493 23142956.554 10 0 60918 3600.00000 0 -10569202.731 -4987893.398 22703082.043 10 0 60918 4500.00000 0 -10759721.402 -7722937.353 21823688.606 10 0 60918 5400.00000 0 -11137190.776 -10304043.454 20521471.009 10 0 60918 6300.00000 0 -11671438.890 -12669484.265 18821326.223 10 0 60918 7200.00000 0 -12322298.695 -14765324.727 16755901.694 10 0 60918 8100.00000 0 -13041369.361 -16547448.345 14364991.620 10 0 60918 9000.00000 0 -13774146.247 -17983186.613 11694790.295 10 0 60918 9900.00000 0 -14462431.553 -19052482.345 8797014.796 10 0 60918 10800.00000 0 -15046924.831 -19748536.421 5727912.280 10 0 60918 11700.00000 0 -15469883.851 -20077908.858 2547170.125 10 0 60918 12600.00000 0 -15677742.183 -20060068.077 -683250.089 10 0 60918 13500.00000 0 -15623570.670 -19726405.896 -3900331.504 10 0 60918 14400.00000 0 -15269275.826 -19118759.005 -7041248.756 10 0 60918 15300.00000 0 -14587438.842 -18287499.344 -10044616.304 10 0 60918 16200.00000 0 -13562714.040 -17289274.943 -12851711.636 10 0 60918 17100.00000 0 -12192724.524 -16184498.330 -15407646.974 10 0 60918 18000.00000 0 -10488414.591 -15034690.897 -17662464.085 10 0 60918 18900.00000 0 -8473842.184 -13899797.967 -19572128.709 10 0 60918 19800.00000 0 -6185419.068 -12835590.486 -21099403.458 10 0 60918 20700.00000 0 -3670630.536 -11891265.238 -22214581.059 10 0 60918 21600.00000 0 -986288.905 -11107346.442 -22896063.162 10 0 60918 22500.00000 0 1803604.976 -10513978.001 -23130773.636 10 0 60918 23400.00000 0 4630301.330 -10129678.314 -22914399.058 10 0 60918 24300.00000 0 7422938.935 -9960609.127 -22251452.960 10 0 60918 25200.00000 0 10111269.349 -10000387.474 -21155164.194 10 0 60918 26100.00000 0 12628353.635 -10230446.284 -19647193.416 10 0 60918 27000.00000 0 14913119.315 -10620925.786 -17757185.118 10 0 60918 27900.00000 0 16912671.824 -11132055.385 -15522165.788 10 0 60918 28800.00000 0 18584265.703 -11715965.173 -12985801.663 10 0 60918 29700.00000 0 19896855.682 -12318848.566 -10197532.008 10 0 60918 30600.00000 0 20832165.764 -12883383.284 -7211595.961 10 0 60918 31500.00000 0 21385234.884 -13351307.688 -4085972.735 10 0 60918 32400.00000 0 21564419.628 -13666043.663 -881256.208 10 0 60918 33300.00000 0 21390857.035 -13775255.974 2340514.238 10 0 60918 34200.00000 0 20897412.634 -13633241.261 5517044.319 10 0 60918 35100.00000 0 20127159.866 -13203047.479 8586974.668 10 0 60918 36000.00000 0 19131455.826 -12458236.134 11491048.073 10 0 60918 36900.00000 0 17967694.341 -11384214.644 14173233.085 10 0 60918 37800.00000 0 16696830.068 -9979083.970 16581784.121 10 0 60918 38700.00000 0 15380776.083 -8253966.405 18670219.563 10 0 60918 39600.00000 0 14079782.148 -6232799.528 20398200.930 10 0 60918 40500.00000 0 12849901.275 -3951603.785 21732297.960 10 0 60918 41400.00000 0 11740648.410 -1457252.268 22646626.384 10 0 60918 42300.00000 0 10792947.262 1194208.750 23123347.106 10 0 60918 43200.00000 0 10037449.712 3939621.896 23153017.629 10 0 60918 44100.00000 0 9493297.341 6711081.210 22734788.735 10 0 60918 45000.00000 0 9167376.985 9438500.428 21876441.736 10 0 60918 45900.00000 0 9054102.319 12052283.519 20594264.024 10 0 60918 46800.00000 0 9135732.224 14485989.098 18912763.237 10 0 60918 47700.00000 0 9383214.651 16678879.620 16864223.087 10 0 60918 48600.00000 0 9757522.882 18578250.036 14488106.823 10 0 60918 49500.00000 0 10211430.227 20141438.651 11830317.246 10 0 60918 50400.00000 0 10691650.241 21337435.133 8942325.407 10 0 60918 51300.00000 0 11141253.371 22148016.671 5880183.091 10 0 60918 52200.00000 0 11502258.227 22568362.555 2703437.212 10 0 60918 53100.00000 0 11718287.195 22607119.159 -526033.032 10 0 60918 54000.00000 0 11737172.352 22285910.689 -3745233.077 10 0 60918 54900.00000 0 11513398.827 21638314.932 -6891299.001 10 0 60918 55800.00000 0 11010279.064 20708346.569 -9902746.396 10 0 60918 56700.00000 0 10201762.535 19548512.319 -12720695.422 10 0 60918 57600.00000 0 9073801.027 18217521.076 -15290045.618 10 0 60918 58500.00000 0 7625208.815 16777747.520 -17560575.044 10 0 60918 59400.00000 0 5867979.056 15292558.513 -19487940.123 10 0 60918 60300.00000 0 3827041.501 13823617.480 -21034554.918 10 0 60918 61200.00000 0 1539471.013 12428282.729 -22170331.537 10 0 60918 62100.00000 0 -946819.775 11157211.120 -22873266.729 10 0 60918 63000.00000 0 -3574848.124 10052269.080 -23129863.394 10 0 60918 63900.00000 0 -6280713.932 9144839.099 -22935379.540 10 0 60918 64800.00000 0 -8996046.227 8454592.242 -22293901.056 10 0 60918 65700.00000 0 -11650639.939 7988776.683 -21218238.529 10 0 60918 66600.00000 0 -14175171.981 7742049.878 -19729651.897 10 0 60918 67500.00000 0 -16503882.977 7696858.554 -17857410.258 10 0 60918 68400.00000 0 -18577113.095 7824347.440 -15638197.236 10 0 60918 69300.00000 0 -20343587.239 8085755.392 -13115375.254 10 0 60918 70200.00000 0 -21762356.018 8434237.322 -10338124.518 10 0 60918 71100.00000 0 -22804313.827 8817032.888 -7360474.630 10 0 60918 72000.00000 0 -23453233.426 9177888.905 -4240248.576 10 0 60918 72900.00000 0 -23706276.788 9459632.485 -1037940.020 10 0 60918 73800.00000 0 -23573963.876 9606786.312 2184454.235 10 0 60918 74700.00000 0 -23079603.343 9568116.351 5364624.343 10 0 60918 75600.00000 0 -22258211.236 9299005.716 8441137.808 10 0 60918 76500.00000 0 -21154964.440 8763556.132 11354608.346 10 0 60918 77400.00000 0 -19823254.358 7936330.012 14048822.117 10 0 60918 78300.00000 0 -18322422.085 6803661.192 16471801.392 10 0 60918 79200.00000 0 -16715268.885 5364480.067 18576787.072 10 0 60918 80100.00000 0 -15065444.426 3630618.673 20323123.048 10 0 60918 81000.00000 0 -13434819.827 1626582.230 21677027.173 10 0 60918 81900.00000 0 -11880952.918 -611204.889 22612235.517 10 0 60918 82800.00000 0 -10454749.301 -3035649.678 23110508.518 10 0 60918 83700.00000 0 -9198414.964 -5590688.466 23161989.776 10 0 60918 84600.00000 0 -8143784.540 -8213365.157 22765410.388 10 0 60918 85500.00000 0 -7311094.438 -10836206.890 21928134.012 99